Overview Statistics Trail Chart Weather Telemetry Raw packets
 

This is the latest recevied weather packets stored in our database for station/object KD8DNS. If no packets are shown the sender has not sent any weather packets the latest 10 day(s).

<< 79 80 81 82 83 84 85 >>
Time Temp. Humidity Pressure Rain* Wind** Luminosity Snow
1788096007 23.89° C 79% 1023 hPa 0 mm - 241 W/m² -
1788095690 23.89° C 80% 1023.2 hPa 0 mm - 232 W/m² -
1788095384 23.33° C 80% 1023.1 hPa 0 mm - 209 W/m² -
1788095080 23.33° C 81% 1023.1 hPa 0 mm - 177 W/m² -
1788094778 23.33° C 81% 1023.3 hPa 0 mm - 151 W/m² -
1788094474 22.78° C 82% 1023.1 hPa 0 mm - 152 W/m² -
1788094172 22.78° C 83% 1023.3 hPa 0 mm - 123 W/m² -
1788093868 21.67° C 85% 1023.1 hPa 0 mm - 120 W/m² -
1788093564 21.11° C 88% 1023.1 hPa 0 mm - 126 W/m² -
1788093261 20.56° C 91% 1023.2 hPa 0 mm - 123 W/m² -
1788092958 20° C 93% 1023.1 hPa 0 mm - 78 W/m² -
1788092658 19.44° C 96% 1023.2 hPa 0 mm - 78 W/m² -
1788092353 18.89° C 97% 1023.1 hPa 0 mm - 38 W/m² -
1788092048 18.89° C 98% 1023.2 hPa 0 mm - 34 W/m² -
1788091743 18.89° C 98% 1023.3 hPa 0 mm - 32 W/m² -
1788091438 18.33° C 98% 1023 hPa 0 mm - 28 W/m² -
1788091134 18.33° C 98% 1023.1 hPa 0 mm - 25 W/m² -
1788090830 18.33° C 98% 1022.9 hPa 0 mm - 21 W/m² -
1788090526 18.33° C 98% 1023.1 hPa 0 mm - 18 W/m² -
1788090222 18.33° C 98% 1023 hPa 0 mm - 18 W/m² -
1788089916 18.33° C 98% 1023.1 hPa 0 mm - 16 W/m² -
1788089611 18.33° C 98% 1022.8 hPa 0 mm - 15 W/m² -
1788089307 17.78° C 98% 1022.9 hPa 0 mm - 11 W/m² -
1788089003 17.78° C 98% 1023 hPa 0 mm - 9 W/m² -
1788088699 17.78° C 98% 1023 hPa 0 mm - 6 W/m² -

* Rain latest hour (hover to see other rain measurements)
** Current wind speed in m/s (hover to see current wind gust speed)